Tracking 19795 objects as of 17-Jul-2019
HD Live streaming from Space Station
objects crossing your sky now

CZ-3B R/B

Track CZ-3B R/B now!
10-day predictions


NORAD ID: 43583
Int'l Code: 2018-062C
Perigee: 108.9 km
Apogee: 2,628.7 km
Inclination: 54.8 °
Period: 112.9 minutes
Semi major axis: 7739 km
RCS: Unknown
Launch date: July 29, 2018
Source: People's Republic of China (PRC)
Launch site: Xichang Space Center, China (XSC)

Note: This is a ROCKET BODY
aabbcc
Your satellite tracking list
Your tracking list is empty




NASA's NSSDC Master Catalog

Two Line Element Set (TLE):
1 43583U 18062C   19198.70191666  .33152144  29177-4  10583-2 0  9996
2 43583  54.7839   1.4487 1627831 328.4822  81.5202 12.74987772 19194
Source of the keplerian elements: AFSPC